Regional Weather Roundup
Issued by NWS Wakefield, VA

Home | Current Version | Previous Version | Graphics & Text | Print | Product List | Glossary On
Versions: 1 2 3 4 5 6 7 8 9 10 11 12 13 14 15 16 17 18 19 20 21 22 23 24 25 26 27 28 29 30 31 32 33 34 35 36 37 38 39 40 41 42 43 44 45 46 47 48 49 50
940
ASUS41 KAKQ 210514
RWRAKQ

REGIONAL WEATHER ROUNDUP
NATIONAL WEATHER SERVICE WAKEFIELD VA
1200 AM EST TUE NOV 21 2017

Note: "fair" indicates few or no clouds below 12,000 feet with no
significant weather and/or obstructions to visibility. * = Denotes
station may not report precipitation (e.g., rain,snow,etc.),
thunder or fog.

VAZ042-051-052>054-056-210600-
NORTHERN VIRGINIA

CITY           SKY/WX    TMP DP  RH WIND       PRES   REMARKS
WASH NATIONAL  CLOUDY    42  29  59 SW5       30.19S
DULLES         CLOUDY    36  26  67 S7        30.17S
FORT BELVOIR   CLOUDY    31  27  83 CALM      30.18F
QUANTICO       CLOUDY    45  30  55 SW8       30.20F
FREDERICKSBRG* CLOUDY    36  29  77 CALM      30.20R
STAFFORD*      CLOUDY    30  26  86 CALM      30.24S
WARRENTON      NOT AVBL
CULPEPER*      CLOUDY    32  25  76 CALM      30.19S
MANASSAS*      CLOUDY    31  26  82 S3        30.18S
LEESBURG*      CLOUDY    32  30  93 SW3       30.17S
WINCHESTER     CLOUDY    36  23  60 SW5       30.13S
FRONT ROYAL*   PTCLDY    37  23  56 SE3       30.13S
LURAY*         CLOUDY    39  25  56 SW6       30.15S
$$

VAZ048-049-060>072-079>083-210600-
CENTRAL AND SOUTH CENTRAL VIRGINIA

CITY           SKY/WX    TMP DP  RH WIND       PRES   REMARKS
RICHMOND       CLOUDY    35  29  78 S6        30.23S
CHESTERFIELD*  NOT AVBL
PETERSBURG*    CLOUDY   N/A N/A N/A CALM      30.24S
HANOVER        CLOUDY    35  30  82 CALM      30.23S
TAPPAHANNOCK*    N/A    N/A N/A N/A MISG        N/A
QUINTON*       FAIR      36  31  80 SE3       30.23S
CHARLOTTSVILLE CLOUDY    38  24  57 S3        30.18S
GORDONSVILLE*  CLOUDY    32  27  80 CALM      30.18S
ORANGE*        CLOUDY    32  27  80 CALM      30.19R
LOUISA*        CLOUDY    38  25  58 S5        30.23S
BUMPASS*       FAIR      33  27  79 CALM      30.20S
FARMVILLE*     CLOUDY    33  31  91 CALM      30.21S
CREWE*         FAIR      34  30  86 CALM      30.22R
FORT PICKETT*  NOT AVBL
CHASE CITY*    FAIR      33  32  96 CALM      30.23S
CLARKSVILLE*   FAIR      34  30  86 S5        30.23S
SOUTH HILL*    CLOUDY    33  31  93 S3        30.29S
LAWRENCEVILLE* FAIR      36  30  78 CALM      30.23S
EMPORIA*       PTCLDY    30  28  93 CALM      30.27R
$$

VAZ088>098-210600-
SOUTHEAST VIRGINIA

CITY           SKY/WX    TMP DP  RH WIND       PRES   REMARKS
NORFOLK        PTCLDY    38  31  76 S7        30.26R
VIRGINIA BEACH PTCLDY    38  29  70 SW5       30.26R
NORFOLK NAVAL  PTCLDY    39  32  76 S5        30.27R
WEST POINT*    PTCLDY    36  30  78 SE3       30.25S
SALUDA*        FAIR      41  32  72 S5        30.24R
NEWPORT NEWS   PTCLDY    35  32  88 CALM      30.25S
LANGLEY AFB    PTCLDY    42  31  65 S8        30.25R
FORT EUSTIS    PTCLDY    45  31  59 S5        30.22S
WILLIAMSBURG*  PTCLDY    45  34  65 CALM      30.25S
HR EXEC AP*    NOT AVBL
FRANKLIN*      PTCLDY    35  30  82 S3        30.27S
US460-WAKEFLD  CLOUDY    36  31  82 CALM      30.25S
$$

VAZ020-022-025-037-045-210600-
WEST CENTRAL AND SOUTHWEST VIRGINIA

CITY           SKY/WX    TMP DP  RH WIND       PRES   REMARKS
STAUNTON*      CLOUDY    28  22  76 CALM      30.18S
WAYNESBORO*    CLOUDY    32  22  66 CALM      30.16S
HOT SPRINGS VA CLOUDY    40  11  30 SW5       30.11S
LYNCHBURG      CLOUDY    32  24  72 CALM      30.19F
DANVILLE       CLOUDY    29  28  96 SW3       30.22R
SOUTH BOSTON*  FAIR      33  30  89 CALM      30.22S
MARTINSVILLE   CLOUDY    27  25  90 CALM      30.22F
ROANOKE        PTCLDY    34  26  72 CALM      30.20F
BLACKSBURG     CLOUDY    31  25  78 CALM      30.20S
DUBLIN*        CLOUDY    32  24  71 CALM      30.18R
MARION*        CLOUDY    29  21  73 CALM      30.16F
HILLSVILLE*    CLOUDY    38  23  53 S7        30.14F
RICHLANDS*     FAIR      40  16  38 CALM      30.10S
WISE*          CLOUDY    43  23  45 S8        30.10S
ABINGDON*      CLOUDY    37  23  58 CALM      30.12S
$$

MDZ021>025-VAZ099-100-210600-
SOUTHERN MARYLAND AND THE DELMARVA PENINSULA

CITY           SKY/WX    TMP DP  RH WIND       PRES   REMARKS
PATUXENT RIVER CLEAR     45  29  53 SW9       30.21S
BAY BRIDGE APT PTCLDY    46  32  57 S6        30.19S
LEONARDTOWN    CLEAR     43  30  61 SW5       30.22S
DOVER          PTCLDY    41  35  81 S8        30.19S
GEORGETOWN     CLOUDY    36  30  79 S5        30.21F
EASTON         CLOUDY    40  32  72 SW6       30.23S
CAMBRIDGE      CLEAR     37  32  81 S3        30.21S
SALISBURY      CLOUDY    35  32  88 S3        30.22S
OCEAN CITY     PTCLDY    41  33  73 W7        30.23S
WALLOPS ISLAND PTCLDY    45  31  58 SW9       30.24S
ACCOMACK*      CLOUDY    38  33  82 S6        30.24R
$$

NCZ012>017-030>032-210600-
NORTH CENTRAL AND EASTERN NORTH CAROLINA

CITY           SKY/WX    TMP DP  RH WIND       PRES   REMARKS
ROANOKE RAPIDS FAIR      34  32  93 SW3       30.26R
RALEIGH        CLOUDY    37  31  78 CALM      30.25S
ELIZABETH CITY CLOUDY    38  36  92 S3        30.28R
AHOSKIE*       CLOUDY    32  31  98 CALM      30.27S
EDENTON*       CLOUDY    42  37  80 CALM      30.29R
CURRITUCK*     CLOUDY    39  37  94 CALM      30.28R
KILL DEVIL HLS CLOUDY    46  34  64 CALM      30.26S
MANTEO         CLOUDY    37  34  91 CALM      30.29R
CAPE HATTERAS  CLEAR     38  36  92 NE3       30.27F
TARBORO*       NOT AVBL
GOLDSBORO      CLOUDY    35  30  81 CALM      30.25S
WASHINGTON     CLOUDY    36  34  93 CALM      30.28F
GREENVILLE     CLOUDY    36  34  93 CALM      30.28S
NEW BERN       CLOUDY    33  33 100 CALM      30.29S
WILMINGTON     PTCLDY    38  36  92 CALM      30.27S
$$

VAZ048-210600-
ELSEWHERE

CITY           SKY/WX    TMP DP  RH WIND       PRES   REMARKS
HARRISBURG PA  PTCLDY    42  23  46 VRB5      30.12S
BALTIMORE      MOCLDY    37  24  59 S3        30.17S
ANNAPOLIS      CLOUDY    43  29  57 S6        30.18S
ANDREWS AFB    CLOUDY    40  26  58 S7        30.17S
PHILADELPHIA   PTCLDY    40  28  62 S7        30.17S
HENDERSON NC   CLOUDY    33  26  74 SW3       30.24S
GREENSBORO     CLOUDY    38  26  62 SW7       30.21S
ROCKY MOUNT    CLOUDY    32  32 100 CALM      30.27R
$$

VAZ100-210600-
MARINE

STATION/POSITION TIME  TEMP    WIND        PRES    WAVE   SWELL
                       AIR SEA DIR/SP/G            HT/PER HT/PER
                 (UTC) (F)     (DEG/KT/KT) (MB)    (FT/S) (FT/S)
BRANDYWINE LGT   0442   48     230/ 18/ 22 1022.8F
CAPE MAY NJ      0448   47 48  230/ 12/ 15 1022.3F
LEWES DE         0448   43 51  220/  6/ 10 1022.7F
15NM E FENWICK I 0350   52 59  230/ 17/ 19 1023.5    2/ 4
OCEAN-CITY-INLET 0448   45 54  240/  6/  7 1023.8F
WACHAPREAGUE VA  0448   44 49  230/  3/  5 1024.1R
THOMAS POINT MD  0500   49 52  200/ 14/ 15   N/A
GOOSES REEF MD   0450   49     210/ 12/ 16 1022.9R
COVE POINT MD    0448   46     210/ 10/ 13 1023.5R
SOLOMONS ISLAND  0442   47 53  210/  8/  9 1022.6S
BISHOPS HEAD MD  0448   48 45  210/ 10/ 12 1023.4R
PINEY POINT MD   0448          230/  8/  9   N/A
POTOMAC MD       0450   48     220/ 14/ 16 1022.7R
CAMBRIDGE MD     0442   42 50              1023.4S
LEWISETTA VA     0448   44 49  220/  9/ 11 1023.2S
RAPPAHANNOCK LGT 0448          210/ 16/ 17 1024.4R
STINGRAY PT      0450   49     240/ 12/ 14 1024.0R
YORK RVR RNG VA  0448   49     220/ 11/ 12 1024.7R
YORKTOWN VA      0448   45 54  210/  8/ 11 1023.8R
JAMESTOWN VA     0450          210/  6/  8   N/A
DOMINION TERM VA 0448   47     210/ 10/ 11 1024.6R
KIPTOPEKE VA     0448      53  210/ 12/ 14   N/A
CAPE HENRY VA    0448   44     200/  8/ 10   N/A
WILLOUBY STN VA  0436   47     190/ 10/ 11 1024.5R
S CRANEY ISL VA  0448   45     200/  5/  8 1024.5R
CAPE HENRY BUOY  0500      60                N/A     2/ 3
1ST LANDING BUOY 0450   48     220/ 14/ 16 1024.6R
CAPE CHARLES BUO 0451      58                N/A     2/ 3
64NM E OF VA BCH 0450   53 60  210/  8/ 10 1025.1S   2/ 5   2/ 5
DUCK PIER NC     0448   49 59  190/  8/ 10 1024.6R
44100 DUCK FRF   0445      61                N/A     2/ 6
44056 DUCK FRF   0500      61                N/A     2/ 5
OREGON INLET NC  0436   49 54  170/  4/  4 1025.2S
HATTERAS NC      0448   50 58   40/  2/  3 1024.7F
DIAMOND SHLS NC  0500   59      20/  6/  8 1025.1
CAPE LOOKOUT NC  0500          360/  3/  3 1025.0F
$$




USA.gov is the U.S. government's official web portal to all federal, state and local government web resources and services.